Location: Banff
(51.1667°N, 115.5667°W)
Time: 13:48:39
(UTC+00:00)

Tiros 1 - Pass Details

Date: 07 August 2021
Orbit: 630 x 663 km, 48.4° (Epoch: 27 September)

Event Time Altitude Azimuth Distance (km) Brightness Sun altitude
Rises 04:20:38 0° 278° (W) 2,983 11.7 -8.7°
Reaches altitude 10° 04:23:07 10° 271° (W) 2,064 10.6 -9.0°
Maximum altitude 04:27:30 38° 204° (SSW) 993 8.0 -9.6°
Enters shadow 04:31:15 13° 140° (SE) 1,827 8.8 -10.0°
